Flag for Switzerland Weather past 2 weeks in Worb, Bern, Switzerland

Now
59 °F

Passing clouds.


Feels Like: 59 °F
Forecast: 39 / 72 °F
Wind: 1 mph from North

Location: Bern / Belp

Current Time: Aug 21, 2014 at 10:51:57 PM

Latest Report: Aug 21, 2014 at 10:20 PM


Visibility: N/A

Pressure: 30.04 "Hg

Humidity: 68%

Dew point: 48 °F

Location of WorbLocation

Historic Weather in Worb — Graph

°F

Worb temperature yesterday

Maximum temperature yesterday: 68 °F (at 1:20 PM)
Minimum temperature yesterday: 50 °F (at 6:20 AM)
Average temperature yesterday: 60 °F

Past Weeks' High & Low Weather Summary

 TemperatureHumidityPressure
High82 °F (Aug 9, 4:50 PM)100% (Aug 6, 11:50 PM)30.21 "Hg (Aug 6, 11:50 PM)
Low45 °F (Aug 17, 5:20 AM)31% (Aug 18, 5:50 PM)29.68 "Hg (Aug 13, 8:50 AM)
Average62 °F79%30.00 "Hg
* Reported Aug 6 9:20 PM — Aug 21 9:50 PM, Worb, Weather by CustomWeather, © 2014

Note: Actual official high and low records may vary slightly from our data, if they occured in-between our weather recording intervals... More about our weather records

Advertising

Worb weather history for previous 24 hours

 ConditionsComfort  
Time TempWeatherWind HumidityBarometerVisibility
9:50 PM
Aug 21
57 °FPassing clouds.2 mph77%30.04 "HgN/A
9:20 PM59 °FScattered clouds.No wind72%30.04 "HgN/A
8:50 PM61 °FPartly sunny.No wind59%30.01 "HgN/A
8:20 PM61 °FPartly sunny.5 mph68%30.01 "HgN/A
7:50 PM63 °FScattered clouds.5 mph64%30.01 "HgN/A
7:20 PM66 °FScattered clouds.5 mph52%30.01 "HgN/A
6:50 PM70 °FScattered clouds.6 mph43%30.01 "HgN/A
6:20 PM70 °FScattered clouds.2 mph46%30.01 "HgN/A
5:50 PM68 °FScattered clouds.2 mph40%30.01 "HgN/A
5:20 PM68 °FPartly sunny.5 mph40%30.01 "HgN/A
4:50 PM70 °FScattered clouds.6 mph35%30.01 "HgN/A
4:20 PM70 °FScattered clouds.7 mph40%30.01 "HgN/A
3:50 PM68 °FScattered clouds.6 mph43%30.04 "HgN/A
3:20 PM68 °FScattered clouds.5 mph43%30.04 "HgN/A
2:50 PM64 °FScattered clouds.5 mph49%30.04 "HgN/A
2:20 PM66 °FScattered clouds.8 mph52%30.04 "HgN/A
1:50 PM64 °FScattered clouds.6 mph49%30.04 "HgN/A
1:20 PM64 °FScattered clouds.6 mph56%30.07 "HgN/A
12:50 PM64 °FScattered clouds.3 mph60%30.07 "HgN/A
12:20 PM64 °FScattered clouds.3 mph60%30.07 "HgN/A
11:50 AM64 °FScattered clouds.3 mph60%30.07 "HgN/A
11:20 AM63 °FScattered clouds.5 mph73%30.07 "HgN/A
10:50 AM63 °FScattered clouds.2 mph68%30.07 "HgN/A
10:20 AM61 °FSunny.1 mph72%30.07 "Hg10 mi
9:50 AM59 °FSunny.2 mph77%30.07 "Hg10 mi
9:20 AM57 °FPassing clouds.5 mph82%30.09 "HgN/A
8:50 AM54 °FSunny.1 mph100%30.09 "Hg10 mi
8:20 AM52 °FPassing clouds.1 mph94%30.07 "HgN/A
7:50 AM50 °FScattered clouds.2 mph94%30.07 "HgN/A
7:20 AM48 °FPassing clouds.2 mph100%30.07 "HgN/A
6:50 AM48 °FPassing clouds.1 mph100%30.07 "HgN/A
6:20 AM48 °FPassing clouds.2 mph100%30.07 "HgN/A
5:50 AM50 °FPassing clouds.2 mph100%30.07 "HgN/A
5:20 AM50 °FOvercast.3 mph100%30.07 "HgN/A
4:50 AM48 °FPassing clouds.5 mph100%30.09 "HgN/A
4:20 AM46 °FPassing clouds.No wind100%30.09 "HgN/A
3:50 AM48 °FPassing clouds.1 mph100%30.09 "Hg5 mi
3:20 AM48 °FPassing clouds.No wind100%30.09 "Hg5 mi
2:50 AM48 °FCool.1 mph100%30.07 "HgN/A
2:20 AM50 °FPassing clouds.2 mph100%30.09 "HgN/A
1:50 AM50 °FPassing clouds.1 mph100%30.09 "HgN/A
1:20 AM52 °FPassing clouds.1 mph94%30.09 "HgN/A
12:50 AM54 °FPassing clouds.3 mph94%30.07 "HgN/A
12:20 AM54 °FOvercast.1 mph100%30.07 "HgN/A
11:50 PM
Aug 20
55 °FPartly cloudy.1 mph94%30.07 "HgN/A
11:20 PM55 °FLight rain. Overcast.2 mph88%30.07 "HgN/A
10:50 PM55 °FLight rain. Partly cloudy.3 mph88%30.07 "HgN/A
10:20 PM59 °FLight rain. Partly cloudy.7 mph72%30.04 "HgN/A
Weather by CustomWeather, © 2014

See weather overviewHow to use our weather pages